Location: Cosy Dell
(34.2789°N, 117.4537°W)
Time: 06:55:06
(UTC+00:00)

ISS - Visible Passes

Search period start: 18 September 2020 00:00
Search period end: 28 September 2020 00:00
Orbit: 419 x 420 km, 51.6° (Epoch: 18 September)

Date Brightness Start Highest point End Pass type
(mag) Time Alt. Az. Time Alt. Az. Time Alt. Az.
18 Sep -3.8 02:30:45 10° SW 02:34:05 68° SE 02:37:26 10° NE visible
18 Sep -0.8 04:09:17 10° WNW 04:11:11 14° NNW 04:11:11 14° NNW visible
19 Sep -1.3 03:21:00 10° W 03:23:39 21° NNW 03:26:14 10° NNE visible
20 Sep -2.1 02:33:03 10° WSW 02:36:08 33° NW 02:39:14 10° NNE visible
22 Sep -0.9 02:36:32 10° WNW 02:38:25 14° NNW 02:40:19 10° N visible
